Powrót do katalogu

FENGYUN 1C DEB

AktywnySSO
NORAD 30731·DEBRIS·🇨🇳 China

Wystrzelony May 10, 1999 z Taiyuan Satellite Launch Center

Loading…

Następne Przeloty (najbliższe 24 godziny)

TLE

ŚwieżeSource: Space-Track

Epoka: Sep 14, 2026, 05:06 UTC

1 30731U 99025ASR 26257.21285705  .00003887  00000-0  11225-2 0  9990
2 30731  98.8532 352.5801 0014942 148.8013 242.0945 14.45134993 13250

Śledź FENGYUN 1C DEB w czasie rzeczywistym z AllMySat

Download on the App Store